Back to catalog

COSMOS 2251 DEB

AliveLEO
NORAD 47069·DEBRIS·🇷🇺 Russia

Launched Jun 16, 1993 from Plesetsk Cosmodrome

Loading…

Next Passes (next 24 hours)

TLE

AgingSource: Space-Track

Epoch: Sep 8, 2026, 09:37 UTC

1 47069U 93036BXZ 26251.40101507  .00013955  00000-0  14362-2 0  9992
2 47069  74.0101 295.6746 0006134 266.9329  93.1151 14.90305571765037

Track COSMOS 2251 DEB in real time with AllMySat

Download on the App Store